Coventry, United Kingdom

12:37 PM GMT on November 18, 2017 (GMT +0000)
Coventry

Weather History for EGBE - January, 2014

Change the Weather History Date:

Thursday, January 2, 2014

  Actual Average Record
Temperature  
Mean Temperature 44 °F -  
Max Temperature 50 °F 43 °F 51 °F (2013)
Min Temperature 39 °F 34 °F 19 °F (2002)
Degree Days  
Heating Degree Days 20    
Moisture  
Dew Point 41 °F    
Average Humidity 82    
Maximum Humidity 93    
Minimum Humidity 76    
Precipitation  
Precipitation 0.00 in - - ()
Sea Level Pressure  
Sea Level Pressure 29.31 in    
Wind  
Wind Speed 11 mph ()    
Max Wind Speed 25 mph    
Max Gust Speed 39 mph    
Visibility 6.0 miles    
Events Rain    
Averages and records for this station are not official NWS values.
T = Trace of Precipitation, MM = Missing Value Source: Averaged Metar Reports

Daily Weather History Graph

Daily Weather History Graph

Search for Another Location

Airport or City:

Trip Planner

Search our weather history database for the weather conditions in past years. The results will help you decide how hot, cold, wet, or windy it might be!

Date:

Astronomy

Jan. 02, 2014 Rise Set
Actual Time 8:15 AM GMT 4:04 PM GMT
Civil Twilight 7:34 AM GMT 4:45 PM GMT
Nautical Twilight 6:50 AM GMT 5:29 PM GMT
Astronomical Twilight 6:09 AM GMT 6:10 PM GMT
Moon 8:31 AM GMT (1/2) 5:59 PM GMT (1/2)
Length of Visible Light 9h 10m
Length of Day
7h 48m
New Moon, 2% of the Moon is Illuminated
Jan 2
New Moon
Jan 8
First Quarter
Jan 16
Full
Jan 24
Last Quarter
Jan 30
New

Hourly Weather History & Observations

Time (GMT) Temp. Windchill Dew Point Humidity Pressure Visibility Wind Dir Wind Speed Gust Speed Precip Events Conditions
6:50 AM 42.8 °F 35.8 °F 39.2 °F 87% 29.18 in 6.2 mi SW 13.8 mph - N/A   Scattered Clouds
7:20 AM 41.0 °F 35.8 °F 37.4 °F 87% 29.24 in 6.2 mi SSW 8.1 mph - N/A   Partly Cloudy
7:50 AM 41.0 °F 35.8 °F 37.4 °F 87% 29.24 in 6.2 mi SSW 8.1 mph - N/A   Partly Cloudy
8:20 AM 39.2 °F 33.6 °F 37.4 °F 93% 29.27 in 6.2 mi SSW 8.1 mph - N/A   Partly Cloudy
8:50 AM 41.0 °F 35.2 °F 37.4 °F 87% 29.30 in - SSW 9.2 mph - N/A   Clear
9:20 AM 42.8 °F 37.0 °F 37.4 °F 81% 29.30 in - SSW 10.4 mph - N/A   Clear
9:50 AM 42.8 °F 37.5 °F 39.2 °F 87% 29.33 in 6.2 mi SSW 9.2 mph - N/A   Partly Cloudy
10:20 AM 44.6 °F 39.7 °F 39.2 °F 81% 29.33 in - South 9.2 mph - N/A   Clear
10:50 AM 44.6 °F 38.8 °F 41.0 °F 87% 29.33 in 6.2 mi South 11.5 mph - N/A   Partly Cloudy
11:20 AM 46.4 °F 41.9 °F 41.0 °F 81% 29.36 in 6.2 mi SSW 9.2 mph - N/A   Partly Cloudy
11:50 AM 48.2 °F - 41.0 °F 76% 29.36 in 6.2 mi SSW 15.0 mph - N/A   Partly Cloudy
12:50 PM 48.2 °F - 41.0 °F 76% 29.36 in 6.2 mi SW 13.8 mph - N/A   Partly Cloudy
1:20 PM 48.2 °F - 41.0 °F 76% 29.36 in 6.2 mi SW 16.1 mph - N/A   Partly Cloudy
1:50 PM 48.2 °F - 41.0 °F 76% 29.36 in 6.2 mi SSW 15.0 mph - N/A   Partly Cloudy
2:20 PM 48.2 °F - 41.0 °F 76% 29.36 in 6.2 mi SSW 15.0 mph - N/A   Scattered Clouds
2:50 PM 48.2 °F - 41.0 °F 76% 29.36 in 6.2 mi SSW 11.5 mph - N/A   Partly Cloudy
3:20 PM 48.2 °F - 41.0 °F 76% 29.39 in 6.2 mi South 11.5 mph - N/A   Scattered Clouds
3:50 PM 48.2 °F - 41.0 °F 76% 29.36 in 6.2 mi South 9.2 mph - N/A   Scattered Clouds
4:20 PM 44.6 °F 40.2 °F 39.2 °F 81% 29.36 in 6.2 mi South 8.1 mph - N/A   Scattered Clouds
4:50 PM 46.4 °F 42.4 °F 39.2 °F 76% 29.36 in 6.2 mi South 8.1 mph - N/A   Partly Cloudy
5:20 PM 46.4 °F 41.5 °F 39.2 °F 76% 29.36 in 6.2 mi South 10.4 mph - N/A   Scattered Clouds
5:50 PM 46.4 °F 41.5 °F 41.0 °F 81% 29.36 in 6.2 mi South 10.4 mph - N/A   Scattered Clouds
6:20 PM 46.4 °F 40.4 °F 41.0 °F 81% 29.36 in 6.2 mi South 13.8 mph - N/A   Partly Cloudy
6:50 PM 46.4 °F 40.4 °F 41.0 °F 81% 29.36 in 6.2 mi South 13.8 mph - N/A   Partly Cloudy
7:20 PM 46.4 °F 40.7 °F 41.0 °F 81% 29.33 in - South 12.7 mph - N/A   Clear
7:50 PM 46.4 °F 40.7 °F 41.0 °F 81% 29.33 in 6.2 mi South 12.7 mph - N/A   Partly Cloudy
8:20 PM 48.2 °F - 42.8 °F 82% 29.30 in 6.2 mi South 16.1 mph - N/A   Partly Cloudy
8:50 PM 48.2 °F - 42.8 °F 82% 29.27 in 6.2 mi South 18.4 mph - N/A   Partly Cloudy
9:20 PM 48.2 °F - 42.8 °F 82% 29.27 in 6.2 mi SSE 18.4 mph - N/A   Partly Cloudy
9:50 PM 48.2 °F - 42.8 °F 82% 29.24 in 6.2 mi SSE 16.1 mph - N/A   Partly Cloudy
10:20 PM 48.2 °F - 44.6 °F 87% 29.21 in 6.2 mi SSE 16.1 mph - N/A Rain Light Rain
10:50 PM 48.2 °F - 44.6 °F 87% 29.18 in 6.2 mi SSE 17.3 mph - N/A Rain Light Rain
11:20 PM 50.0 °F - 44.6 °F 82% 29.15 in 3.7 mi SSE 21.9 mph - N/A Rain Rain
11:50 PM 50.0 °F - 46.4 °F 87% 29.15 in 2.5 mi South 25.3 mph 39.1 mph N/A Rain Rain